owner,sensor,date,latitude,longitude,vertical_datum,mass_concentration_of_oxygen_in_sea_water,qcFlag 
SCCF RECON,ioos:station:SCCF:16:1,2010-06-01T00:00:00Z,26.4345,-81.9647,2.117,5.01,1111122 
SCCF RECON,ioos:station:SCCF:16:1,2010-06-01T01:00:00Z,26.4345,-81.9647,2.001,5.27,1111122 
SCCF RECON,ioos:station:SCCF:16:1,2010-06-01T02:00:00Z,26.4345,-81.9647,1.946,5.15,1111122 
SCCF RECON,ioos:station:SCCF:16:1,2010-06-01T03:00:00Z,26.4345,-81.9647,1.986,5.26,1111122 
SCCF RECON,ioos:station:SCCF:16:1,2010-06-01T04:00:00Z,26.4345,-81.9647,2.159,5.22,1111122 
SCCF RECON,ioos:station:SCCF:16:1,2010-06-01T05:00:00Z,26.4345,-81.9647,2.327,5.09,1111122 
SCCF RECON,ioos:station:SCCF:16:1,2010-06-01T06:00:00Z,26.4345,-81.9647,2.431,5.29,1111122 
SCCF RECON,ioos:station:SCCF:16:1,2010-06-01T07:00:00Z,26.4345,-81.9647,2.529,5.26,1111122 
SCCF RECON,ioos:station:SCCF:16:1,2010-06-01T08:00:00Z,26.4345,-81.9647,2.592,5.31,1111122 
SCCF RECON,ioos:station:SCCF:16:1,2010-06-01T09:00:00Z,26.4345,-81.9647,2.608,5.14,1111122 
SCCF RECON,ioos:station:SCCF:16:1,2010-06-01T10:00:00Z,26.4345,-81.9647,2.577,5.16,1111122 
SCCF RECON,ioos:station:SCCF:16:1,2010-06-01T11:00:00Z,26.4345,-81.9647,2.546,5.15,1111122 
SCCF RECON,ioos:station:SCCF:16:1,2010-06-01T12:00:00Z,26.4345,-81.9647,2.499,4.92,1111122 
SCCF RECON,ioos:station:SCCF:16:1,2010-06-01T13:00:00Z,26.4345,-81.9647,2.463,4.56,1111122 
SCCF RECON,ioos:station:SCCF:16:1,2010-06-01T14:00:00Z,26.4345,-81.9647,2.461,4.65,1111122 
SCCF RECON,ioos:station:SCCF:16:1,2010-06-01T15:00:00Z,26.4345,-81.9647,2.513,4.89,1111122 
SCCF RECON,ioos:station:SCCF:16:1,2010-06-01T16:00:00Z,26.4345,-81.9647,2.608,5.3,1111122 
SCCF RECON,ioos:station:SCCF:16:1,2010-06-01T17:00:00Z,26.4345,-81.9647,2.69,4.96,1111122 
SCCF RECON,ioos:station:SCCF:16:1,2010-06-01T18:00:00Z,26.4345,-81.9647,2.769,5.41,1111122 
SCCF RECON,ioos:station:SCCF:16:1,2010-06-01T19:00:00Z,26.4345,-81.9647,2.783,5.38,1111122 
SCCF RECON,ioos:station:SCCF:16:1,2010-06-01T20:00:00Z,26.4345,-81.9647,2.762,5.45,1111122 
SCCF RECON,ioos:station:SCCF:16:1,2010-06-01T21:00:00Z,26.4345,-81.9647,2.667,5.5,1111122 
SCCF RECON,ioos:station:SCCF:16:1,2010-06-01T22:00:00Z,26.4345,-81.9647,2.565,5.56,1111122 
SCCF RECON,ioos:station:SCCF:16:1,2010-06-01T23:00:00Z,26.4345,-81.9647,2.446,5.6,1111122 
SCCF RECON,ioos:station:SCCF:16:1,2010-06-02T00:00:00Z,26.4345,-81.9647,2.304,5.15,1111122 
SCCF RECON,ioos:station:SCCF:16:1,2010-06-02T01:00:00Z,26.4345,-81.9647,2.147,5.37,1111122 
SCCF RECON,ioos:station:SCCF:16:1,2010-06-02T02:00:00Z,26.4345,-81.9647,2.035,5.3,1111122 
SCCF RECON,ioos:station:SCCF:16:1,2010-06-02T03:00:00Z,26.4345,-81.9647,2.032,5.39,1111122 
SCCF RECON,ioos:station:SCCF:16:1,2010-06-02T04:00:00Z,26.4345,-81.9647,2.12,5.38,1111122 
SCCF RECON,ioos:station:SCCF:16:1,2010-06-02T05:00:00Z,26.4345,-81.9647,2.251,5.41,1111122 
SCCF RECON,ioos:station:SCCF:16:1,2010-06-02T06:00:00Z,26.4345,-81.9647,2.366,5.49,1111122 
SCCF RECON,ioos:station:SCCF:16:1,2010-06-02T07:00:00Z,26.4345,-81.9647,2.459,5.0,1111122 
SCCF RECON,ioos:station:SCCF:16:1,2010-06-02T08:00:00Z,26.4345,-81.9647,2.561,4.87,1111122 
SCCF RECON,ioos:station:SCCF:16:1,2010-06-02T09:00:00Z,26.4345,-81.9647,2.622,4.67,1111122 
SCCF RECON,ioos:station:SCCF:16:1,2010-06-02T10:00:00Z,26.4345,-81.9647,2.617,4.67,1111122 
SCCF RECON,ioos:station:SCCF:16:1,2010-06-02T11:00:00Z,26.4345,-81.9647,2.566,4.88,1111122 
SCCF RECON,ioos:station:SCCF:16:1,2010-06-02T12:00:00Z,26.4345,-81.9647,2.531,4.95,1111122 
SCCF RECON,ioos:station:SCCF:16:1,2010-06-02T13:00:00Z,26.4345,-81.9647,2.459,4.92,1111122 
SCCF RECON,ioos:station:SCCF:16:1,2010-06-02T14:00:00Z,26.4345,-81.9647,2.45,4.75,1111122 
SCCF RECON,ioos:station:SCCF:16:1,2010-06-02T15:00:00Z,26.4345,-81.9647,2.45,4.71,1111122 
SCCF RECON,ioos:station:SCCF:16:1,2010-06-02T16:00:00Z,26.4345,-81.9647,2.501,5.04,1111122 
SCCF RECON,ioos:station:SCCF:16:1,2010-06-02T17:00:00Z,26.4345,-81.9647,2.558,5.26,1111122 
SCCF RECON,ioos:station:SCCF:16:1,2010-06-02T18:00:00Z,26.4345,-81.9647,2.635,5.32,1111122 
SCCF RECON,ioos:station:SCCF:16:1,2010-06-02T19:00:00Z,26.4345,-81.9647,2.67,5.54,1111122 
SCCF RECON,ioos:station:SCCF:16:1,2010-06-02T20:00:00Z,26.4345,-81.9647,2.692,5.66,1111122 
SCCF RECON,ioos:station:SCCF:16:1,2010-06-02T21:00:00Z,26.4345,-81.9647,2.654,5.64,1111122 
SCCF RECON,ioos:station:SCCF:16:1,2010-06-02T22:00:00Z,26.4345,-81.9647,2.595,5.41,1111122 
SCCF RECON,ioos:station:SCCF:16:1,2010-06-02T23:00:00Z,26.4345,-81.9647,2.507,5.7,1111122 
SCCF RECON,ioos:station:SCCF:16:1,2010-06-03T00:00:00Z,26.4345,-81.9647,2.422,5.48,1111122 
SCCF RECON,ioos:station:SCCF:16:1,2010-06-03T01:00:00Z,26.4345,-81.9647,2.303,5.29,1111122 
SCCF RECON,ioos:station:SCCF:16:1,2010-06-03T02:00:00Z,26.4345,-81.9647,2.166,5.12,1111122 
SCCF RECON,ioos:station:SCCF:16:1,2010-06-03T03:00:00Z,26.4345,-81.9647,2.107,5.69,1111122 
SCCF RECON,ioos:station:SCCF:16:1,2010-06-03T04:00:00Z,26.4345,-81.9647,2.122,5.52,1111122 
SCCF RECON,ioos:station:SCCF:16:1,2010-06-03T05:00:00Z,26.4345,-81.9647,2.232,5.35,1111122 
SCCF RECON,ioos:station:SCCF:16:1,2010-06-03T06:00:00Z,26.4345,-81.9647,2.346,5.3,1111122 
SCCF RECON,ioos:station:SCCF:16:1,2010-06-03T07:00:00Z,26.4345,-81.9647,2.481,5.49,1111122 
SCCF RECON,ioos:station:SCCF:16:1,2010-06-03T08:00:00Z,26.4345,-81.9647,2.544,4.62,1111122 
SCCF RECON,ioos:station:SCCF:16:1,2010-06-03T09:00:00Z,26.4345,-81.9647,2.646,5.05,1111122 
SCCF RECON,ioos:station:SCCF:16:1,2010-06-03T10:00:00Z,26.4345,-81.9647,2.67,4.68,1111122 
SCCF RECON,ioos:station:SCCF:16:1,2010-06-03T11:00:00Z,26.4345,-81.9647,2.668,4.49,1111122 
SCCF RECON,ioos:station:SCCF:16:1,2010-06-03T12:00:00Z,26.4345,-81.9647,2.681,4.89,1111122 
SCCF RECON,ioos:station:SCCF:16:1,2010-06-03T13:00:00Z,26.4345,-81.9647,2.635,5.15,1111122 
SCCF RECON,ioos:station:SCCF:16:1,2010-06-03T14:00:00Z,26.4345,-81.9647,2.567,4.97,1111122 
SCCF RECON,ioos:station:SCCF:16:1,2010-06-03T15:00:00Z,26.4345,-81.9647,2.506,5.12,1111122 
SCCF RECON,ioos:station:SCCF:16:1,2010-06-03T16:00:00Z,26.4345,-81.9647,2.505,5.27,1111122 
SCCF RECON,ioos:station:SCCF:16:1,2010-06-03T17:00:00Z,26.4345,-81.9647,2.504,5.49,1111122 
SCCF RECON,ioos:station:SCCF:16:1,2010-06-03T18:00:00Z,26.4345,-81.9647,2.594,5.74,1111122 
SCCF RECON,ioos:station:SCCF:16:1,2010-06-03T19:00:00Z,26.4345,-81.9647,2.652,5.96,1111122 
SCCF RECON,ioos:station:SCCF:16:1,2010-06-03T20:00:00Z,26.4345,-81.9647,2.673,6.0,1111122 
SCCF RECON,ioos:station:SCCF:16:1,2010-06-03T21:00:00Z,26.4345,-81.9647,2.669,6.02,1111122 
SCCF RECON,ioos:station:SCCF:16:1,2010-06-03T22:00:00Z,26.4345,-81.9647,2.637,5.24,1111122 
SCCF RECON,ioos:station:SCCF:16:1,2010-06-03T23:00:00Z,26.4345,-81.9647,2.608,5.71,1111122 
SCCF RECON,ioos:station:SCCF:16:1,2010-06-04T00:00:00Z,26.4345,-81.9647,2.543,5.8,1111122 
SCCF RECON,ioos:station:SCCF:16:1,2010-06-04T01:00:00Z,26.4345,-81.9647,2.405,5.61,1111122 
SCCF RECON,ioos:station:SCCF:16:1,2010-06-04T02:00:00Z,26.4345,-81.9647,2.294,5.68,1111122 
SCCF RECON,ioos:station:SCCF:16:1,2010-06-04T03:00:00Z,26.4345,-81.9647,2.268,5.67,1111122 
SCCF RECON,ioos:station:SCCF:16:1,2010-06-04T04:00:00Z,26.4345,-81.9647,2.245,5.1,1111122 
SCCF RECON,ioos:station:SCCF:16:1,2010-06-04T05:00:00Z,26.4345,-81.9647,2.167,5.18,1111122 
SCCF RECON,ioos:station:SCCF:16:1,2010-06-04T06:00:00Z,26.4345,-81.9647,2.264,5.07,1111122 
SCCF RECON,ioos:station:SCCF:16:1,2010-06-04T07:00:00Z,26.4345,-81.9647,2.611,5.04,1111122 
SCCF RECON,ioos:station:SCCF:16:1,2010-06-04T08:00:00Z,26.4345,-81.9647,2.667,5.17,1111122 
SCCF RECON,ioos:station:SCCF:16:1,2010-06-04T09:00:00Z,26.4345,-81.9647,2.57,5.02,1111122 
SCCF RECON,ioos:station:SCCF:16:1,2010-06-04T10:00:00Z,26.4345,-81.9647,2.621,4.88,1111122 
SCCF RECON,ioos:station:SCCF:16:1,2010-06-04T11:00:00Z,26.4345,-81.9647,2.86,4.8,1111122 
SCCF RECON,ioos:station:SCCF:16:1,2010-06-04T12:00:00Z,26.4345,-81.9647,2.845,4.93,1111122 
SCCF RECON,ioos:station:SCCF:16:1,2010-06-04T13:00:00Z,26.4345,-81.9647,2.679,4.92,1111122 
SCCF RECON,ioos:station:SCCF:16:1,2010-06-04T14:00:00Z,26.4345,-81.9647,2.651,4.87,1111122 
SCCF RECON,ioos:station:SCCF:16:1,2010-06-04T15:00:00Z,26.4345,-81.9647,2.628,4.95,1111122 
SCCF RECON,ioos:station:SCCF:16:1,2010-06-04T16:00:00Z,26.4345,-81.9647,2.647,4.92,1111122 
SCCF RECON,ioos:station:SCCF:16:1,2010-06-04T17:00:00Z,26.4345,-81.9647,2.562,4.88,1111122 
SCCF RECON,ioos:station:SCCF:16:1,2010-06-04T18:00:00Z,26.4345,-81.9647,2.535,4.52,1111122 
SCCF RECON,ioos:station:SCCF:16:1,2010-06-04T19:00:00Z,26.4345,-81.9647,2.508,5.57,1111122 
SCCF RECON,ioos:station:SCCF:16:1,2010-06-04T20:00:00Z,26.4345,-81.9647,2.622,5.39,1111122 
SCCF RECON,ioos:station:SCCF:16:1,2010-06-04T21:00:00Z,26.4345,-81.9647,2.647,4.39,1111122 
SCCF RECON,ioos:station:SCCF:16:1,2010-06-04T22:00:00Z,26.4345,-81.9647,2.659,5.28,1111122 
SCCF RECON,ioos:station:SCCF:16:1,2010-06-04T23:00:00Z,26.4345,-81.9647,2.625,5.29,1111122 
SCCF RECON,ioos:station:SCCF:16:1,2010-06-05T00:00:00Z,26.4345,-81.9647,2.621,5.34,1111122 
SCCF RECON,ioos:station:SCCF:16:1,2010-06-05T01:00:00Z,26.4345,-81.9647,2.546,5.24,1111122 
SCCF RECON,ioos:station:SCCF:16:1,2010-06-05T02:00:00Z,26.4345,-81.9647,2.449,4.45,1111122 
SCCF RECON,ioos:station:SCCF:16:1,2010-06-05T03:00:00Z,26.4345,-81.9647,2.358,4.79,1111122 
SCCF RECON,ioos:station:SCCF:16:1,2010-06-05T04:00:00Z,26.4345,-81.9647,2.348,4.73,1111122 
SCCF RECON,ioos:station:SCCF:16:1,2010-06-05T05:00:00Z,26.4345,-81.9647,2.33,4.75,1111122 
SCCF RECON,ioos:station:SCCF:16:1,2010-06-05T06:00:00Z,26.4345,-81.9647,2.33,4.69,1111122 
SCCF RECON,ioos:station:SCCF:16:1,2010-06-05T07:00:00Z,26.4345,-81.9647,2.418,4.69,1111122 
SCCF RECON,ioos:station:SCCF:16:1,2010-06-05T08:00:00Z,26.4345,-81.9647,2.5,4.52,1111122 
SCCF RECON,ioos:station:SCCF:16:1,2010-06-05T09:00:00Z,26.4345,-81.9647,2.571,4.62,1111122 
SCCF RECON,ioos:station:SCCF:16:1,2010-06-05T10:00:00Z,26.4345,-81.9647,2.608,4.23,1111122 
SCCF RECON,ioos:station:SCCF:16:1,2010-06-05T11:00:00Z,26.4345,-81.9647,2.726,4.37,1111122 
SCCF RECON,ioos:station:SCCF:16:1,2010-06-05T12:00:00Z,26.4345,-81.9647,2.775,4.37,1111122 
SCCF RECON,ioos:station:SCCF:16:1,2010-06-05T13:00:00Z,26.4345,-81.9647,2.835,4.53,1111122 
SCCF RECON,ioos:station:SCCF:16:1,2010-06-05T14:00:00Z,26.4345,-81.9647,2.643,4.45,1111122 
SCCF RECON,ioos:station:SCCF:16:1,2010-06-05T15:00:00Z,26.4345,-81.9647,2.603,4.76,1111122 
SCCF RECON,ioos:station:SCCF:16:1,2010-06-05T16:00:00Z,26.4345,-81.9647,2.451,4.93,1111122 
SCCF RECON,ioos:station:SCCF:16:1,2010-06-05T17:00:00Z,26.4345,-81.9647,2.394,4.56,1111122 
SCCF RECON,ioos:station:SCCF:16:1,2010-06-05T18:00:00Z,26.4345,-81.9647,2.414,4.42,1111122 
SCCF RECON,ioos:station:SCCF:16:1,2010-06-05T19:00:00Z,26.4345,-81.9647,2.402,4.42,1111122 
SCCF RECON,ioos:station:SCCF:16:1,2010-06-05T20:00:00Z,26.4345,-81.9647,2.466,4.47,1111122 
SCCF RECON,ioos:station:SCCF:16:1,2010-06-05T21:00:00Z,26.4345,-81.9647,2.529,4.95,1111122 
SCCF RECON,ioos:station:SCCF:16:1,2010-06-05T22:00:00Z,26.4345,-81.9647,2.579,5.75,1111122 
SCCF RECON,ioos:station:SCCF:16:1,2010-06-05T23:00:00Z,26.4345,-81.9647,2.569,5.78,1111122 
SCCF RECON,ioos:station:SCCF:16:1,2010-06-06T00:00:00Z,26.4345,-81.9647,2.583,5.69,1111122 
SCCF RECON,ioos:station:SCCF:16:1,2010-06-06T01:00:00Z,26.4345,-81.9647,2.584,5.23,1111122 
SCCF RECON,ioos:station:SCCF:16:1,2010-06-06T02:00:00Z,26.4345,-81.9647,2.537,5.45,1111122 
SCCF RECON,ioos:station:SCCF:16:1,2010-06-06T03:00:00Z,26.4345,-81.9647,2.486,5.17,1111122 
SCCF RECON,ioos:station:SCCF:16:1,2010-06-06T04:00:00Z,26.4345,-81.9647,2.415,5.47,1111122 
SCCF RECON,ioos:station:SCCF:16:1,2010-06-06T05:00:00Z,26.4345,-81.9647,2.34,4.9,1111122 
SCCF RECON,ioos:station:SCCF:16:1,2010-06-06T06:00:00Z,26.4345,-81.9647,2.312,5.23,1111122 
SCCF RECON,ioos:station:SCCF:16:1,2010-06-06T07:00:00Z,26.4345,-81.9647,2.309,4.15,1111122 
SCCF RECON,ioos:station:SCCF:16:1,2010-06-06T08:00:00Z,26.4345,-81.9647,2.404,4.73,1111122 
SCCF RECON,ioos:station:SCCF:16:1,2010-06-06T09:00:00Z,26.4345,-81.9647,2.513,4.34,1111122 
SCCF RECON,ioos:station:SCCF:16:1,2010-06-06T10:00:00Z,26.4345,-81.9647,2.634,4.45,1111122 
SCCF RECON,ioos:station:SCCF:16:1,2010-06-06T11:00:00Z,26.4345,-81.9647,2.687,4.02,1111122 
SCCF RECON,ioos:station:SCCF:16:1,2010-06-06T12:00:00Z,26.4345,-81.9647,2.66,3.83,1111122 
SCCF RECON,ioos:station:SCCF:16:1,2010-06-06T13:00:00Z,26.4345,-81.9647,2.657,3.64,1111122 
SCCF RECON,ioos:station:SCCF:16:1,2010-06-06T14:00:00Z,26.4345,-81.9647,2.64,3.75,1111122 
SCCF RECON,ioos:station:SCCF:16:1,2010-06-06T15:00:00Z,26.4345,-81.9647,2.587,3.5,1111122 
SCCF RECON,ioos:station:SCCF:16:1,2010-06-06T16:00:00Z,26.4345,-81.9647,2.481,4.26,1111122 
SCCF RECON,ioos:station:SCCF:16:1,2010-06-06T17:00:00Z,26.4345,-81.9647,2.36,4.19,1111122 
SCCF RECON,ioos:station:SCCF:16:1,2010-06-06T18:00:00Z,26.4345,-81.9647,2.28,4.23,1111122 
SCCF RECON,ioos:station:SCCF:16:1,2010-06-06T19:00:00Z,26.4345,-81.9647,2.205,4.62,1111122 
SCCF RECON,ioos:station:SCCF:16:1,2010-06-06T20:00:00Z,26.4345,-81.9647,2.232,4.75,1111122 
SCCF RECON,ioos:station:SCCF:16:1,2010-06-06T21:00:00Z,26.4345,-81.9647,2.331,4.58,1111122 
SCCF RECON,ioos:station:SCCF:16:1,2010-06-06T22:00:00Z,26.4345,-81.9647,2.444,5.4,1111122 
SCCF RECON,ioos:station:SCCF:16:1,2010-06-06T23:00:00Z,26.4345,-81.9647,2.524,5.45,1111122 
SCCF RECON,ioos:station:SCCF:16:1,2010-06-07T00:00:00Z,26.4345,-81.9647,2.57,5.49,1111122 
SCCF RECON,ioos:station:SCCF:16:1,2010-06-07T01:00:00Z,26.4345,-81.9647,2.616,5.63,1111122 
SCCF RECON,ioos:station:SCCF:16:1,2010-06-07T02:00:00Z,26.4345,-81.9647,2.612,5.51,1111122 
SCCF RECON,ioos:station:SCCF:16:1,2010-06-07T03:00:00Z,26.4345,-81.9647,2.57,5.45,1111122 
SCCF RECON,ioos:station:SCCF:16:1,2010-06-07T04:00:00Z,26.4345,-81.9647,2.466,5.2,1111122 
SCCF RECON,ioos:station:SCCF:16:1,2010-06-07T05:00:00Z,26.4345,-81.9647,2.433,5.17,1111122 
SCCF RECON,ioos:station:SCCF:16:1,2010-06-07T06:00:00Z,26.4345,-81.9647,2.414,5.21,1111122 
SCCF RECON,ioos:station:SCCF:16:1,2010-06-07T07:00:00Z,26.4345,-81.9647,2.416,5.1,1111122 
SCCF RECON,ioos:station:SCCF:16:1,2010-06-07T08:00:00Z,26.4345,-81.9647,2.39,4.76,1111122 
SCCF RECON,ioos:station:SCCF:16:1,2010-06-07T09:00:00Z,26.4345,-81.9647,2.447,4.94,1111122 
SCCF RECON,ioos:station:SCCF:16:1,2010-06-07T10:00:00Z,26.4345,-81.9647,2.554,4.93,1111122 
SCCF RECON,ioos:station:SCCF:16:1,2010-06-07T11:00:00Z,26.4345,-81.9647,2.651,4.48,1111122 
SCCF RECON,ioos:station:SCCF:16:1,2010-06-07T12:00:00Z,26.4345,-81.9647,2.685,4.18,1111122 
SCCF RECON,ioos:station:SCCF:16:1,2010-06-07T13:00:00Z,26.4345,-81.9647,2.711,4.02,1111122 
SCCF RECON,ioos:station:SCCF:16:1,2010-06-07T14:00:00Z,26.4345,-81.9647,2.72,4.23,1111122 
SCCF RECON,ioos:station:SCCF:16:1,2010-06-07T15:00:00Z,26.4345,-81.9647,2.644,4.22,1111122 
SCCF RECON,ioos:station:SCCF:16:1,2010-06-07T16:00:00Z,26.4345,-81.9647,2.54,4.59,1111122 
SCCF RECON,ioos:station:SCCF:16:1,2010-06-07T17:00:00Z,26.4345,-81.9647,2.374,4.53,1111122 
SCCF RECON,ioos:station:SCCF:16:1,2010-06-07T18:00:00Z,26.4345,-81.9647,2.223,4.65,1111122 
SCCF RECON,ioos:station:SCCF:16:1,2010-06-07T19:00:00Z,26.4345,-81.9647,2.131,4.6,1111122 
SCCF RECON,ioos:station:SCCF:16:1,2010-06-07T20:00:00Z,26.4345,-81.9647,2.086,4.64,1111122 
SCCF RECON,ioos:station:SCCF:16:1,2010-06-07T21:00:00Z,26.4345,-81.9647,2.129,5.01,1111122 
SCCF RECON,ioos:station:SCCF:16:1,2010-06-07T22:00:00Z,26.4345,-81.9647,2.241,5.01,1111122 
SCCF RECON,ioos:station:SCCF:16:1,2010-06-07T23:00:00Z,26.4345,-81.9647,2.381,5.09,1111122 
SCCF RECON,ioos:station:SCCF:16:1,2010-06-08T00:00:00Z,26.4345,-81.9647,2.461,5.25,1111122 
SCCF RECON,ioos:station:SCCF:16:1,2010-06-08T01:00:00Z,26.4345,-81.9647,2.516,4.77,1111122 
SCCF RECON,ioos:station:SCCF:16:1,2010-06-08T02:00:00Z,26.4345,-81.9647,2.579,4.69,1111122 
SCCF RECON,ioos:station:SCCF:16:1,2010-06-08T03:00:00Z,26.4345,-81.9647,2.588,4.64,1111122 
SCCF RECON,ioos:station:SCCF:16:1,2010-06-08T04:00:00Z,26.4345,-81.9647,2.563,4.47,1111122 
SCCF RECON,ioos:station:SCCF:16:1,2010-06-08T05:00:00Z,26.4345,-81.9647,2.496,4.44,1111122 
SCCF RECON,ioos:station:SCCF:16:1,2010-06-08T06:00:00Z,26.4345,-81.9647,2.481,4.16,1111122 
SCCF RECON,ioos:station:SCCF:16:1,2010-06-08T07:00:00Z,26.4345,-81.9647,2.463,4.25,1111122 
SCCF RECON,ioos:station:SCCF:16:1,2010-06-08T08:00:00Z,26.4345,-81.9647,2.458,4.04,1111122 
SCCF RECON,ioos:station:SCCF:16:1,2010-06-08T09:00:00Z,26.4345,-81.9647,2.457,4.05,1111122 
SCCF RECON,ioos:station:SCCF:16:1,2010-06-08T10:00:00Z,26.4345,-81.9647,2.548,4.17,1111122 
SCCF RECON,ioos:station:SCCF:16:1,2010-06-08T11:00:00Z,26.4345,-81.9647,2.633,4.29,1111122 
SCCF RECON,ioos:station:SCCF:16:1,2010-06-08T12:00:00Z,26.4345,-81.9647,2.699,4.31,1111122 
SCCF RECON,ioos:station:SCCF:16:1,2010-06-08T13:00:00Z,26.4345,-81.9647,2.781,4.33,1111122 
SCCF RECON,ioos:station:SCCF:16:1,2010-06-08T14:00:00Z,26.4345,-81.9647,2.806,4.38,1111122 
SCCF RECON,ioos:station:SCCF:16:1,2010-06-08T16:00:00Z,26.4345,-81.9647,2.686,5.34,1111122 
SCCF RECON,ioos:station:SCCF:16:1,2010-06-08T17:00:00Z,26.4345,-81.9647,2.455,5.17,1111122 
SCCF RECON,ioos:station:SCCF:16:1,2010-06-08T18:00:00Z,26.4345,-81.9647,2.274,4.77,1111122 
SCCF RECON,ioos:station:SCCF:16:1,2010-06-08T19:00:00Z,26.4345,-81.9647,2.115,5.01,1111122 
SCCF RECON,ioos:station:SCCF:16:1,2010-06-08T20:00:00Z,26.4345,-81.9647,1.983,4.83,1111122 
SCCF RECON,ioos:station:SCCF:16:1,2010-06-08T21:00:00Z,26.4345,-81.9647,1.978,4.91,1111122 
SCCF RECON,ioos:station:SCCF:16:1,2010-06-08T22:00:00Z,26.4345,-81.9647,2.037,5.31,1111122 
SCCF RECON,ioos:station:SCCF:16:1,2010-06-08T23:00:00Z,26.4345,-81.9647,2.186,5.21,1111122 
SCCF RECON,ioos:station:SCCF:16:1,2010-06-09T00:00:00Z,26.4345,-81.9647,2.337,5.3,1111122 
SCCF RECON,ioos:station:SCCF:16:1,2010-06-09T01:00:00Z,26.4345,-81.9647,2.391,5.02,1111122 
SCCF RECON,ioos:station:SCCF:16:1,2010-06-09T02:00:00Z,26.4345,-81.9647,2.438,5.46,1111122 
SCCF RECON,ioos:station:SCCF:16:1,2010-06-09T03:00:00Z,26.4345,-81.9647,2.547,5.64,1111122 
SCCF RECON,ioos:station:SCCF:16:1,2010-06-09T04:00:00Z,26.4345,-81.9647,2.558,5.43,1111122 
SCCF RECON,ioos:station:SCCF:16:1,2010-06-09T05:00:00Z,26.4345,-81.9647,2.533,5.4,1111122 
SCCF RECON,ioos:station:SCCF:16:1,2010-06-09T06:00:00Z,26.4345,-81.9647,2.49,5.36,1111122 
SCCF RECON,ioos:station:SCCF:16:1,2010-06-09T07:00:00Z,26.4345,-81.9647,2.388,5.09,1111122 
SCCF RECON,ioos:station:SCCF:16:1,2010-06-09T08:00:00Z,26.4345,-81.9647,2.322,5.15,1111122 
SCCF RECON,ioos:station:SCCF:16:1,2010-06-09T09:00:00Z,26.4345,-81.9647,2.316,5.02,1111122 
SCCF RECON,ioos:station:SCCF:16:1,2010-06-09T10:00:00Z,26.4345,-81.9647,2.436,5.15,1111122 
SCCF RECON,ioos:station:SCCF:16:1,2010-06-09T11:00:00Z,26.4345,-81.9647,2.627,5.12,1111122 
SCCF RECON,ioos:station:SCCF:16:1,2010-06-09T12:00:00Z,26.4345,-81.9647,2.787,5.23,1111122 
SCCF RECON,ioos:station:SCCF:16:1,2010-06-09T13:00:00Z,26.4345,-81.9647,2.833,5.43,1111122 
SCCF RECON,ioos:station:SCCF:16:1,2010-06-09T14:00:00Z,26.4345,-81.9647,2.851,5.47,1111122 
SCCF RECON,ioos:station:SCCF:16:1,2010-06-09T15:00:00Z,26.4345,-81.9647,2.82,5.63,1111122 
SCCF RECON,ioos:station:SCCF:16:1,2010-06-09T16:00:00Z,26.4345,-81.9647,2.721,5.78,1111122 
SCCF RECON,ioos:station:SCCF:16:1,2010-06-09T17:00:00Z,26.4345,-81.9647,2.56,5.83,1111122 
SCCF RECON,ioos:station:SCCF:16:1,2010-06-09T18:00:00Z,26.4345,-81.9647,2.441,5.69,1111122 
SCCF RECON,ioos:station:SCCF:16:1,2010-06-09T19:00:00Z,26.4345,-81.9647,2.261,5.64,1111122 
SCCF RECON,ioos:station:SCCF:16:1,2010-06-09T20:00:00Z,26.4345,-81.9647,2.037,5.8,1111122 
SCCF RECON,ioos:station:SCCF:16:1,2010-06-09T21:00:00Z,26.4345,-81.9647,1.894,5.16,1111122 
SCCF RECON,ioos:station:SCCF:16:1,2010-06-09T22:00:00Z,26.4345,-81.9647,1.875,5.33,1111122 
SCCF RECON,ioos:station:SCCF:16:1,2010-06-09T23:00:00Z,26.4345,-81.9647,2.02,5.84,1111122 
SCCF RECON,ioos:station:SCCF:16:1,2010-06-10T00:00:00Z,26.4345,-81.9647,2.194,5.91,1111122 
SCCF RECON,ioos:station:SCCF:16:1,2010-06-10T01:00:00Z,26.4345,-81.9647,2.358,5.93,1111122 
SCCF RECON,ioos:station:SCCF:16:1,2010-06-10T02:00:00Z,26.4345,-81.9647,2.499,6.0,1111122 
SCCF RECON,ioos:station:SCCF:16:1,2010-06-10T03:00:00Z,26.4345,-81.9647,2.583,5.85,1111122 
SCCF RECON,ioos:station:SCCF:16:1,2010-06-10T04:00:00Z,26.4345,-81.9647,2.622,5.69,1111122 
SCCF RECON,ioos:station:SCCF:16:1,2010-06-10T05:00:00Z,26.4345,-81.9647,2.62,5.59,1111122 
SCCF RECON,ioos:station:SCCF:16:1,2010-06-10T06:00:00Z,26.4345,-81.9647,2.537,5.53,1111122 
SCCF RECON,ioos:station:SCCF:16:1,2010-06-10T07:00:00Z,26.4345,-81.9647,2.481,5.52,1111122 
SCCF RECON,ioos:station:SCCF:16:1,2010-06-10T08:00:00Z,26.4345,-81.9647,2.43,5.44,1111122 
SCCF RECON,ioos:station:SCCF:16:1,2010-06-10T09:00:00Z,26.4345,-81.9647,2.383,5.29,1111122 
SCCF RECON,ioos:station:SCCF:16:1,2010-06-10T10:00:00Z,26.4345,-81.9647,2.411,5.3,1111122 
SCCF RECON,ioos:station:SCCF:16:1,2010-06-10T11:00:00Z,26.4345,-81.9647,2.51,5.39,1111122 
SCCF RECON,ioos:station:SCCF:16:1,2010-06-10T12:00:00Z,26.4345,-81.9647,2.649,5.32,1111122 
SCCF RECON,ioos:station:SCCF:16:1,2010-06-10T13:00:00Z,26.4345,-81.9647,2.818,5.38,1111122 
SCCF RECON,ioos:station:SCCF:16:1,2010-06-10T14:00:00Z,26.4345,-81.9647,2.876,5.02,1111122 
SCCF RECON,ioos:station:SCCF:16:1,2010-06-10T15:00:00Z,26.4345,-81.9647,2.875,5.14,1111122 
SCCF RECON,ioos:station:SCCF:16:1,2010-06-10T16:00:00Z,26.4345,-81.9647,2.841,5.23,1111122 
SCCF RECON,ioos:station:SCCF:16:1,2010-06-10T17:00:00Z,26.4345,-81.9647,2.701,5.29,1111122 
SCCF RECON,ioos:station:SCCF:16:1,2010-06-10T18:00:00Z,26.4345,-81.9647,2.502,5.47,1111122 
SCCF RECON,ioos:station:SCCF:16:1,2010-06-10T19:00:00Z,26.4345,-81.9647,2.311,5.45,1111122 
SCCF RECON,ioos:station:SCCF:16:1,2010-06-10T20:00:00Z,26.4345,-81.9647,2.107,5.66,1111122 
SCCF RECON,ioos:station:SCCF:16:1,2010-06-10T21:00:00Z,26.4345,-81.9647,1.92,5.7,1111122 
SCCF RECON,ioos:station:SCCF:16:1,2010-06-10T22:00:00Z,26.4345,-81.9647,1.79,6.0,1111122 
SCCF RECON,ioos:station:SCCF:16:1,2010-06-10T23:00:00Z,26.4345,-81.9647,1.85,6.65,1111122 
SCCF RECON,ioos:station:SCCF:16:1,2010-06-11T00:00:00Z,26.4345,-81.9647,2.031,6.26,1111122 
SCCF RECON,ioos:station:SCCF:16:1,2010-06-11T01:00:00Z,26.4345,-81.9647,2.25,6.41,1111122 
SCCF RECON,ioos:station:SCCF:16:1,2010-06-11T02:00:00Z,26.4345,-81.9647,2.433,6.31,1111122 
SCCF RECON,ioos:station:SCCF:16:1,2010-06-11T03:00:00Z,26.4345,-81.9647,2.569,5.92,1111122 
SCCF RECON,ioos:station:SCCF:16:1,2010-06-11T04:00:00Z,26.4345,-81.9647,2.69,5.65,1111122 
SCCF RECON,ioos:station:SCCF:16:1,2010-06-11T05:00:00Z,26.4345,-81.9647,2.701,5.67,1111122 
SCCF RECON,ioos:station:SCCF:16:1,2010-06-11T06:00:00Z,26.4345,-81.9647,2.67,5.65,1111122 
SCCF RECON,ioos:station:SCCF:16:1,2010-06-11T07:00:00Z,26.4345,-81.9647,2.614,5.5,1111122 
SCCF RECON,ioos:station:SCCF:16:1,2010-06-11T08:00:00Z,26.4345,-81.9647,2.566,5.53,1111122 
SCCF RECON,ioos:station:SCCF:16:1,2010-06-11T09:00:00Z,26.4345,-81.9647,2.487,5.52,1111122 
SCCF RECON,ioos:station:SCCF:16:1,2010-06-11T10:00:00Z,26.4345,-81.9647,2.459,5.26,1111122 
SCCF RECON,ioos:station:SCCF:16:1,2010-06-11T11:00:00Z,26.4345,-81.9647,2.511,5.5,1111122 
SCCF RECON,ioos:station:SCCF:16:1,2010-06-11T12:00:00Z,26.4345,-81.9647,2.64,5.6,1111122 
SCCF RECON,ioos:station:SCCF:16:1,2010-06-11T13:00:00Z,26.4345,-81.9647,2.826,5.69,1111122 
SCCF RECON,ioos:station:SCCF:16:1,2010-06-11T14:00:00Z,26.4345,-81.9647,2.937,5.78,1111122 
SCCF RECON,ioos:station:SCCF:16:1,2010-06-11T15:00:00Z,26.4345,-81.9647,2.995,5.82,1111122 
SCCF RECON,ioos:station:SCCF:16:1,2010-06-11T16:00:00Z,26.4345,-81.9647,2.991,5.78,1111122 
SCCF RECON,ioos:station:SCCF:16:1,2010-06-11T17:00:00Z,26.4345,-81.9647,2.893,5.89,1111122 
SCCF RECON,ioos:station:SCCF:16:1,2010-06-11T18:00:00Z,26.4345,-81.9647,2.731,5.73,1111122 
SCCF RECON,ioos:station:SCCF:16:1,2010-06-11T19:00:00Z,26.4345,-81.9647,2.505,5.79,1111122 
SCCF RECON,ioos:station:SCCF:16:1,2010-06-11T20:00:00Z,26.4345,-81.9647,2.31,5.83,1111122 